Location: Slemon Park
(46.4340°N, 63.8219°W)
Time: 06:51:18
(UTC-03:00)

Daily predictions for brighter satellites

Satellite Brightness Start Highest point End
(mag) Time Altitude Azimuth Time Altitude Azimuth Time Altitude Azimuth
Cosmos 2263 Rocket 2.4 20:43:03 10° NNW 20:48:32 55° ENE 20:54:00 10° SE
Abrixas rocket 2.2 20:48:31 10° WSW 20:51:50 87° N 20:55:07 10° ENE
SeaSat 1 4.1 20:52:26 10° E 20:56:02 21° NE 20:59:39 10° N
Cosmos 2322 Rocket 2.2 20:54:01 10° S 20:59:30 59° ESE 21:05:03 10° NNE
SJ-11-01 4.5 20:56:10 10° SSE 21:00:43 56° ENE 21:05:18 10° N
Meteor 2-20 Rocket 4.5 20:55:06 10° N 21:01:15 83° E 21:07:24 10° S
Cosmos 1707 Rocket 4.2 20:58:21 10° SSW 21:02:45 63° W 21:07:09 10° N
Cosmos 1869 3.3 20:59:19 10° S 21:03:15 85° W 21:07:14 10° N
COSMOS 2428 4.4 21:02:06 10° ESE 21:04:02 12° E 21:06:00 10° ENE
Cosmos 1733 Rocket 3.1 21:00:50 10° N 21:05:17 63° E 21:09:41 10° SSE
Cosmos 2360 Rocket 3.0 21:04:02 10° SSE 21:08:49 29° ESE 21:13:36 10° NE
Cosmos 1992 Rocket 4.1 21:04:15 10° S 21:09:19 52° ESE 21:14:25 10° NNE
Cosmos 1980 Rocket 3.4 21:04:05 10° SW 21:09:35 48° WNW 21:15:07 10° NNE
Cosmos 1634 Rocket 4.2 21:03:27 10° S 21:09:46 84° W 21:16:09 10° N
CZ-4B DEB 2.6 21:06:54 10° SSE 21:09:56 70° ENE 21:12:58 10° N
Cosmos 1825 2.4 21:10:49 10° NNW 21:14:37 72° W 21:18:23 10° S
Cosmos 1862 Rocket 3.7 21:11:48 10° S 21:16:10 56° E 21:20:34 10° NNE
Cosmos 2322 4.4 21:16:26 10° SSE 21:21:23 31° ESE 21:26:20 10° NE
Cosmos 1655 Rocket 4.1 21:14:57 10° N 21:21:24 89° E 21:27:46 10° S
USA 186 3.4 21:19:45 10° SSW 21:22:16 30° W 21:24:57 10° NNW
USA 267 3.6 21:16:02 10° NE 21:22:33 70° NNW 21:29:02 10° WSW
BREEZE-M DEB (TANK) 3.5 21:20:05 10° W 21:23:19 85° S 21:32:39 10° E
SAR-Lupe-4 4.1 21:19:49 10° S 21:23:21 59° WSW 21:26:56 10° NNW
ATLAS 5 CENTAUR R/B 2.4 21:18:34 10° NW 21:24:29 79° NE 21:30:01 15° SE
GENESIS II 4.2 21:21:25 10° SSW 21:25:27 73° SE 21:29:31 10° NE
Helios 1A 3.6 21:21:29 10° S 21:25:40 58° W 21:29:53 10° NNW
SPOT 5 3.8 21:22:50 14° ESE 21:26:06 29° ENE 21:30:05 10° N
SL-16 R/B 2.3 21:22:58 10° SSW 21:28:39 86° WNW 21:34:22 10° NNE
Cosmos 2266 Rocket 4.3 21:26:39 10° N 21:32:46 51° ENE 21:37:58 15° SSE
Cosmos 1933 3.2 21:31:44 10° S 21:35:46 83° E 21:39:49 10° N
Cosmos 1703 Rocket 4.2 21:33:21 15° SSE 21:36:33 36° E 21:40:36 10° NNE
Cosmos 1408 4.2 21:33:25 10° NNW 21:36:50 35° W 21:40:12 10° SSW
ARGOS 3.8 21:33:44 17° SE 21:37:24 39° ENE 21:42:23 10° N
Cosmos 968 Rocket 3.5 21:38:43 10° NNW 21:43:57 79° ENE 21:47:50 18° SSE
Cosmos 2333 Rocket 4.1 21:44:34 11° E 21:44:34 11° E 21:45:54 10° ENE
Cosmos 2278 Rocket 3.9 21:42:10 10° N 21:46:21 21° NE 21:49:58 12° E
Cosmos 1867 3.6 21:41:47 10° NW 21:47:17 88° SW 21:51:02 21° SSE
Cosmos 2279 Rocket 4.3 21:42:26 10° SSW 21:48:39 72° W 21:54:54 10° N
YAOGAN 11 4.3 21:46:10 22° SE 21:48:49 54° ENE 21:53:04 10° N
Cosmos 1844 Rocket 3.4 21:45:42 10° NNW 21:50:58 41° NE 21:54:10 21° ESE
Cosmos 2221 Rocket 4.1 21:49:31 23° SE 21:51:44 38° E 21:55:51 10° NNE
H-2A R/B 2.9 21:50:22 21° ESE 21:52:47 32° ENE 21:57:08 10° N
Milstar 3 4.5 21:49:03 10° SW 21:53:02 15° SSW 21:55:57 12° S
Meteor 1-29 4.1 21:50:13 10° N 21:53:35 45° WNW 21:56:54 10° SW
Envisat 4.2 21:53:15 10° SSW 21:58:00 40° W 22:02:46 10° NNW
USA 234 3.7 21:53:53 18° SSE 21:58:45 55° SW 22:05:10 10° WNW
SL-08 RB Rocket 4.2 21:57:25 26° SE 21:59:33 45° ENE 22:03:54 10° N
CZ-4C R/B 3.8 21:54:53 10° NNW 22:01:07 37° NE 22:06:45 15° E
Cosmos 1782 3.7 22:06:27 29° E 22:06:43 29° E 22:10:14 10° NNE
Meteor 1-26 Rocket 4.2 22:01:18 10° S 22:07:00 84° E 22:12:51 10° NNE
MetOp-A 4.1 22:05:10 21° SSE 22:08:52 88° WSW 22:14:16 10° NNW
YAOGAN 6 3.8 22:10:21 15° SSW 22:13:00 38° W 22:16:25 10° NNW
Cosmos 2219 Rocket 3.2 22:13:09 25° ESE 22:13:19 25° ESE 22:17:50 10° NE
Lacrosse 4 Rocket 4.1 22:13:31 10° WNW 22:15:36 13° WSW 22:17:42 10° SW
Terra 2.8 22:18:40 27° E 22:19:59 31° ENE 22:24:11 10° N
Sich 1 Rocket 4.4 22:16:42 10° NNW 22:21:01 48° W 22:24:15 17° SSW
H-2A R/B 2.9 22:20:23 30° E 22:21:17 34° ENE 22:25:13 10° N
Meteor 2-10 Rocket 4.2 22:17:45 10° SSW 22:23:32 63° WNW 22:29:16 10° N
Atlas Centaur 2 4.0 22:19:20 10° SW 22:24:57 24° S 22:25:41 23° SSE
ERS-1 Rocket 3.9 22:22:06 15° SSW 22:26:02 44° W 22:30:51 10° NNW
Abrixas rocket 2.6 22:25:30 10° WNW 22:28:46 59° N 22:29:23 47° NE
MOS 1-B Rocket 3.8 22:25:44 28° SSE 22:29:04 87° WSW 22:34:43 10° NNW
Cosmos 2263 Rocket 4.0 22:27:40 10° NW 22:32:05 25° WSW 22:36:31 10° SSW
SeaSat 1 2.4 22:31:07 37° SSE 22:33:04 79° WSW 22:38:03 10° NNW
Meteor 1-10 Rocket 4.4 22:35:37 35° SSE 22:38:00 60° E 22:43:47 10° NNE
Cosmos 2237 4.1 22:32:29 10° SSW 22:38:13 84° ESE 22:43:59 10° NNE
Cosmos 1782 Rocket 4.2 22:34:21 10° NNW 22:38:36 52° W 22:40:33 29° SSW
Meteor 1-11 Rocket 4.2 22:34:10 10° N 22:39:28 44° ENE 22:40:51 37° ESE
S3M 4.5 22:38:02 35° ESE 22:39:29 40° E 22:45:12 10° NNE
SPOT 1/Viking Rocket 3.5 22:38:08 37° S 22:40:17 84° WSW 22:45:32 10° NNW
USA 245 4.4 22:37:27 27° S 22:40:33 64° WSW 22:45:25 10° NNW
NOSS 3-1 (C) 3.7 22:41:12 39° SE 22:41:49 40° ESE 22:47:46 10° NE
Cosmos 1300 Rocket 4.4 22:39:21 10° N 22:43:19 33° ENE 22:43:24 33° ENE
Cosmos 2322 Rocket 4.4 22:39:15 10° WSW 22:43:57 27° NW 22:48:41 10° N
USA 229 DEB 3.6 22:39:38 10° SW 22:46:29 89° NW 22:53:30 10° NE
Cosmos 1898 Rocket 4.5 22:41:52 10° N 22:46:34 33° ENE 22:47:46 30° E
USA 229 3.6 22:39:44 10° SW 22:46:35 89° NW 22:53:36 10° NE
COSMOS 2428 2.6 22:43:29 22° SSW 22:47:18 78° ESE 22:53:02 10° NNE
Okean 2 Rocket 3.5 22:43:14 10° NNW 22:47:42 59° W 22:49:13 38° SSW
Cosmos 1777 Rocket 4.5 22:47:00 10° NNW 22:52:09 55° WSW 22:54:03 36° SSW
Cosmos 2360 Rocket 3.1 22:47:04 10° SW 22:52:32 49° WNW 22:58:04 10° NNE
Iridium 4 Rocket 3.8 22:52:21 10° NNE 22:55:51 38° ENE 22:55:51 38° ENE
Cosmos 1633 2.8 22:52:42 10° N 22:55:57 62° NNE 22:55:57 62° NNE
NOSS 3-1 (A) 3.9 22:57:51 38° ESE 22:57:51 38° ESE 23:03:15 10° NE
Okean 1-7 3.9 22:56:12 24° SW 22:58:29 47° WNW 23:02:46 10° N
Cosmos 1844 3.6 22:54:13 10° NNW 22:59:55 83° WSW 23:01:23 51° SSE
Cosmos 1980 4.3 23:02:07 38° E 23:02:07 38° E 23:06:47 10° NE
SPOT 5 4.1 23:02:04 25° SW 23:04:05 35° W 23:08:21 10° NNW
Cosmos 1536 3.8 23:01:41 10° N 23:04:54 36° NE 23:04:54 36° NE
SL-16 R/B 4.1 23:09:01 15° ENE 23:09:01 15° ENE 23:10:48 10° ENE
ATLAS 5 CENTAUR R/B 4.1 23:04:07 10° WNW 23:08:48 23° WSW 23:11:35 18° SSW
Cosmos 1745 Rocket 4.0 23:03:52 10° N 23:10:13 70° E 23:11:49 51° SE
ASTEX 1 3.3 23:09:44 66° SSE 23:10:28 88° E 23:15:30 10° N
Cosmos 1606 3.0 23:10:35 62° WNW 23:10:35 62° WNW 23:14:15 10° N
Cosmos 1417 Rocket 4.4 23:08:51 42° S 23:11:10 87° E 23:17:34 10° N
deb Chang Zheng 4 3.6 23:09:48 10° NNE 23:13:56 71° ENE 23:13:56 71° ENE
CZ-4C R/B 4.3 23:18:19 37° NNE 23:18:19 37° NNE 23:20:58 10° N
ARGOS 4.5 23:15:14 22° SW 23:17:42 32° W 23:22:30 10° NNW
Cosmos 2084 3.7 23:16:48 10° NW 23:19:57 59° NW 23:19:57 59° NW
Cosmos 2151 Rocket 4.0 23:17:16 10° NNW 23:21:36 53° W 23:21:57 51° WSW
Cosmos 2333 Rocket 2.1 23:26:29 65° S 23:27:15 76° ESE 23:33:01 10° NNE
ATLAS 3B R/B 4.0 23:22:24 10° NNW 23:28:32 32° NNE 23:32:45 17° E
CARTOSAT-1 3.9 23:29:11 57° W 23:29:11 57° W 23:33:24 10° NNW
Cosmos 2237 Rocket 2.3 23:29:24 58° E 23:29:24 58° E 23:34:48 10° NNE
Cosmos 2278 Rocket 2.0 23:25:29 10° NNW 23:31:11 84° WSW 23:31:49 71° S
CRYOSAT 2 4.3 23:31:52 77° SW 23:32:04 79° W 23:36:59 10° N
H-2A R/B 3.1 23:30:59 31° SW 23:32:10 35° W 23:36:41 10° NNW
Geosat 3.9 23:29:42 10° NNE 23:34:46 88° WNW 23:35:12 75° SW
Cosmos 1844 Rocket 3.7 23:29:47 10° NW 23:34:46 34° WSW 23:35:50 32° SW
DMSP B5D2-2 4.4 23:30:06 10° N 23:35:20 64° WNW 23:36:42 47° SW
DELTA 2 DEB (DPAF) 4.3 23:39:52 73° NNW 23:39:52 73° NNW 23:43:57 10° NNW
CZ-4B R/B 3.3 23:35:15 10° NNE 23:39:38 74° NE 23:39:38 74° NE
Cosmos 2298 Rocket 3.9 23:34:55 10° NNW 23:40:17 76° ENE 23:40:26 76° E
CZ-2C R/B 4.3 23:36:59 10° NE 23:40:07 21° ENE 23:40:07 21° ENE
Okean 3 4.4 23:42:33 41° NNE 23:42:33 41° NNE 23:45:25 10° NNE
Okean 1 Rocket 3.3 23:37:57 10° N 23:41:52 68° NNW 23:41:52 68° NNW
Cosmos 1674 Rocket 4.1 23:48:15 55° NW 23:48:15 55° NW 23:52:10 10° N
NOSS 0 Rocket 3.8 23:46:44 61° SSW 23:47:55 90° NW 23:54:07 10° NNE
Meteor 1-5 Rocket 4.1 23:43:31 10° N 23:49:11 89° ENE 23:49:34 79° SSE
CZ-4C R/B 2.8 23:43:14 10° NW 23:50:18 75° SW 23:51:55 57° S
ATLAS CENTAUR R/B 4.1 23:59:17 10° NE 23:59:17 10° NE 23:59:23 10° NE
